Regional Weather Roundup
Issued by NWS

Home | Current Version | Previous Version | Text Only | Print | Product List | Glossary Off
Versions: 1 2 3 4 5 6 7 8 9 10 11 12 13 14 15 16 17 18 19 20 21 22 23 24 25 26 27 28 29 30 31 32 33 34 35 36 37 38 39 40 41 42 43 44 45 46 47 48 49 50

000
ASUS43 KTOP 140459
RWRKS

WEATHER ROUNDUP FOR KANSAS
NATIONAL WEATHER SERVICE GOODLAND KS
1100 PM CST SAT FEB 13 2016

NOTE:  "FAIR" INDICATES FEW OR NO CLOUDS BELOW 12,000 FEET WITH NO
SIGNIFICANT WEATHER AND/OR OBSTRUCTIONS TO VISIBILITY.

KSZ001>006-013>018-027>032-041>047-140600-
NORTHWEST KANSAS

CITY           SKY/WX    TMP DP  RH WIND       PRES   REMARKS
GOODLAND       CLOUDY    29  25  85 NW13G18   30.02R WCI  19
HAYS           CLOUDY    28  12  50 CALM      29.98S
HILL CITY      CLOUDY    27  20  75 N5        30.01R
RUSSELL        CLOUDY    30  16  56 E7        29.98F
$$

KSZ061>065-074>080-084>089-140600-
SOUTHWEST KANSAS

CITY           SKY/WX    TMP DP  RH WIND       PRES   REMARKS
DODGE CITY     CLOUDY    29  22  75 E9        29.93F
ELKHART          N/A     36  20  52 NW17        N/A  WCI  26
GARDEN CITY    CLOUDY    28  22  78 E8        29.91F
GREAT BEND     CLOUDY    30  12  47 SE14      29.96F WCI  20
LIBERAL        CLEAR     39  27  60 E15       29.87F WCI  31
$$

KSZ066>073-081>083-090>101-140600-
SOUTHEAST KANSAS

CITY           SKY/WX    TMP DP  RH WIND       PRES   REMARKS
CHANUTE        CLOUDY    30   8  39 E9        30.14F
COFFEYVILLE    CLOUDY    32  15  49 E8        30.12F
HUTCHINSON     PTCLDY    30  11  45 SE13      30.02F WCI  20
MEDICINE LODGE   N/A     37  22  54 E12       29.97F WCI  29
NEWTON         CLOUDY    25   7  46 SE15      30.04F WCI  12
PARSONS        CLOUDY    33  12  41 E6        30.11F
WICHITA INTL   CLOUDY    32  10  40 E10       30.04F WCI  24
WICHITA JABRA  CLOUDY    26   9  48 E9        30.04F
WINFIELD       CLEAR     36  14  40 E10       30.04F WCI  28
$$

KSZ007>012-019>026-033>040-048>060-102>105-140600-
NORTHEAST KANSAS

CITY           SKY/WX    TMP DP  RH WIND       PRES   REMARKS
CONCORDIA      CLOUDY    21   7  54 SE13G21   30.06F WCI   9
EMPORIA        CLOUDY    21   7  54 E12       30.10F WCI   9
LAWRENCE       CLOUDY    22   4  46 E13       30.18F WCI  10
MANHATTAN      CLOUDY    22   7  52 E9        30.12F
OLATHE IND     CLOUDY    23   4  44 E13       30.18F WCI  11
OLATHE EXE     CLOUDY    22   3  44 E12G20    30.19F WCI  10
SALINA         MOCLDY    26   8  46 E13       30.04F WCI  15
TOPEKA BILLARD CLOUDY    23   4  44 E9        30.17F
TOPEKA FORBES  CLOUDY    23   6  48 E12       30.13F WCI  12
$$



USA.gov is the U.S. government's official web portal to all federal, state and local government web resources and services.